Weather History for CYRB - May, 2013

Change the Weather History Date:

Wednesday, May 8, 2013

  Actual Average Record
Temperature  
Mean Temperature -6 °F -  
Max Temperature 3 °F 11 °F 32 °F (2004)
Min Temperature -14 °F 3 °F -14 °F (2013)
Degree Days  
Heating Degree Days 70    
Moisture  
Dew Point -13 °F    
Average Humidity 65    
Maximum Humidity 72    
Minimum Humidity 48    
Precipitation  
Precipitation 0.00 in - - ()
Sea Level Pressure  
Sea Level Pressure 29.96 in    
Wind  
Wind Speed 13 mph ()    
Max Wind Speed 18 mph    
Max Gust Speed 22 mph    
Visibility 12.8 miles    
Events Snow    
Averages and records for this station are not official NWS values.
T = Trace of Precipitation, MM = Missing Value Source: Averaged Metar Reports

Daily Weather History Graph

Daily Weather History Graph

Search for Another Location

Airport or City:

Trip Planner

Search our weather history database for the weather conditions in past years. The results will help you decide how hot, cold, wet, or windy it might be!

Date:

Astronomy

Dec. 31, 1969 Rise Set
Actual Time Sun does not rise Sun does not rise
Civil Twilight Sun does not rise Sun does not rise
Nautical Twilight Sun does not rise Sun does not rise
Astronomical Twilight Sun does not rise Sun does not rise
Moon 2:23 AM CDT (5/8) No Moon Set
Length of Visible Light 24h 00m
Length of Day
24h 00m
Waning Crescent, 2% of the Moon is Illuminated
May 8
Waning Crescent
May 9
New
May 17
First Quarter
May 24
Full
May 31
Last Quarter

Hourly Weather History & Observations

Time (CDT) Temp. Windchill Dew Point Humidity Pressure Visibility Wind Dir Wind Speed Gust Speed Precip Events Conditions
12:00 AM -5.8 °F -28.2 °F -14.8 °F 65% 29.89 in 15.0 mi NNE 17.3 mph - N/A   Partly Cloudy
1:00 AM -9 °F - -18 °F 50% 29.89 in 15 mi NNW 11.5 mph - - Snow Snow
1:00 AM -9.4 °F -28.9 °F -18.4 °F 65% 29.89 in 15.0 mi NNW 11.5 mph - N/A   Partly Cloudy
2:00 AM -9.4 °F -32.1 °F -18.4 °F 65% 29.90 in 8.0 mi NNW 16.1 mph - N/A   Partly Cloudy
3:00 AM -9.4 °F -32.8 °F -18.4 °F 65% 29.90 in 15.0 mi North 17.3 mph - N/A   Partly Cloudy
4:00 AM -11.2 °F -34.4 °F -20.2 °F 64% 29.91 in 15.0 mi NNW 16.1 mph - N/A   Partly Cloudy
5:00 AM -11.2 °F -34.4 °F -20.2 °F 64% 29.90 in 15.0 mi NNW 16.1 mph - N/A Snow Low Drifting Snow
6:00 AM -11.2 °F -31.1 °F -20.2 °F 64% 29.92 in 8.0 mi NNW 11.5 mph - N/A   Partly Cloudy
7:00 AM -10 °F - -19 °F 48% 29.93 in 15 mi North 15.0 mph - - Snow Snow
7:00 AM -9.4 °F -31.4 °F -18.4 °F 65% 29.93 in 15.0 mi North 15.0 mph - N/A   Partly Cloudy
8:00 AM -7.6 °F -31.1 °F -16.6 °F 65% 29.94 in 8.0 mi North 18.4 mph - N/A   Partly Cloudy
9:00 AM -7.6 °F -28.3 °F -16.6 °F 65% 29.95 in 12.0 mi NW 13.8 mph - N/A   Mostly Cloudy
10:00 AM -5.8 °F -27.5 °F -14.8 °F 65% 29.96 in 15.0 mi NW 16.1 mph 21.9 mph N/A Snow Low Drifting Snow
11:00 AM -4.0 °F -23.7 °F -13.0 °F 65% 29.96 in 15.0 mi NW 13.8 mph - N/A   Mostly Cloudy
12:00 PM -2.2 °F -16.8 °F -9.4 °F 71% 29.97 in 15.0 mi NW 8.1 mph - N/A   Mostly Cloudy
1:00 PM -0 °F - -9 °F 53% 29.97 in 15 mi NW 15.0 mph - - Snow Snow
1:00 PM -0.4 °F -19.9 °F -9.4 °F 66% 29.97 in 15.0 mi NW 15.0 mph - N/A   Mostly Cloudy
2:00 PM 1.4 °F -19.4 °F -7.6 °F 66% 29.97 in 15.0 mi NW 18.4 mph - N/A Snow Low Drifting Snow
3:00 PM 1.4 °F -18.2 °F -5.8 °F 72% 29.99 in 8.0 mi NW 16.1 mph - N/A Snow Low Drifting Snow
3:25 PM - - - N/A% - 6.0 mi NNW 16.1 mph - N/A   Unknown
4:00 PM 1.4 °F -16.1 °F -5.8 °F 72% 30.00 in 6.0 mi NW 12.7 mph 18.4 mph N/A Snow Light Snow
4:42 PM - - - N/A% - 6.0 mi NW 13.8 mph - N/A   Unknown
5:00 PM 3.2 °F -14.6 °F -5.8 °F 66% 30.01 in 6.0 mi NW 13.8 mph - N/A Snow Light Snow
6:00 PM 1.4 °F -16.1 °F -5.8 °F 72% 30.02 in 15.0 mi NW 12.7 mph - N/A   Overcast
7:00 PM 2 °F - -5 °F 58% 30.02 in 15 mi WNW 8.1 mph - - Snow Snow
7:00 PM 3.2 °F -10.3 °F -5.8 °F 66% 30.02 in 15.0 mi WNW 8.1 mph - N/A   Overcast
8:00 PM 1.4 °F -16.1 °F -5.8 °F 72% 30.02 in 15.0 mi NW 12.7 mph - N/A   Mostly Cloudy
9:00 PM -2.2 °F -19.9 °F -9.4 °F 71% 30.02 in 15.0 mi West 11.5 mph - N/A   Mostly Cloudy
10:00 PM -2.2 °F -16.8 °F -9.4 °F 71% 30.01 in 15.0 mi WNW 8.1 mph - N/A   Mostly Cloudy
11:00 PM -2.2 °F -16.8 °F -9.4 °F 71% 30.01 in 15.0 mi WNW 8.1 mph - N/A   Overcast